Time,TemperatureF,DewpointF,PressureIn,WindDirection,WindDirectionDegrees,WindSpeedMPH,WindSpeedGustMPH,Humidity,HourlyPrecipIn,Conditions,Clouds,dailyrainin,SoftwareType,DateUTC
2013-07-03 00:01:00,74.0,59.0,29.78,SSE,164,0.0,0.0,59,0.00,,,0.00,,2013-07-03 06:01:00,
2013-07-03 00:34:00,73.0,60.0,29.78,SE,132,1.0,2.0,64,0.00,,,0.00,,2013-07-03 06:34:00,
2013-07-03 01:02:00,72.0,60.0,29.78,South,173,0.0,2.0,66,0.00,,,0.00,,2013-07-03 07:02:00,
2013-07-03 01:12:00,72.0,59.0,29.78,SSW,198,0.0,2.0,63,0.00,,,0.00,,2013-07-03 07:12:00,
2013-07-03 01:22:00,72.0,59.0,29.78,SSW,198,0.0,2.0,63,0.00,,,0.00,,2013-07-03 07:22:00,
2013-07-03 01:35:00,71.0,59.0,29.78,SSW,197,0.0,1.0,67,0.00,,,0.00,,2013-07-03 07:35:00,
2013-07-03 01:44:00,70.0,59.0,29.78,SSW,197,0.0,1.0,68,0.00,,,0.00,,2013-07-03 07:44:00,
2013-07-03 02:03:00,69.0,59.0,29.79,SSW,197,0.0,0.0,71,0.00,,,0.00,,2013-07-03 08:03:00,
2013-07-03 02:12:00,68.0,59.0,29.79,SSW,198,0.0,0.0,72,0.00,,,0.00,,2013-07-03 08:12:00,
2013-07-03 02:23:00,68.0,59.0,29.79,SSW,198,0.0,0.0,72,0.00,,,0.00,,2013-07-03 08:23:00,
2013-07-03 02:34:00,68.0,59.0,29.79,SSW,196,0.0,0.0,73,0.00,,,0.00,,2013-07-03 08:34:00,
2013-07-03 02:52:00,66.0,58.0,29.79,SSW,197,0.0,0.0,76,0.00,,,0.00,,2013-07-03 08:52:00,
2013-07-03 03:02:00,66.0,59.0,29.79,SSW,197,0.0,0.0,77,0.00,,,0.00,,2013-07-03 09:02:00,
2013-07-03 03:12:00,66.0,59.0,29.79,SSW,197,0.0,0.0,77,0.00,,,0.00,,2013-07-03 09:12:00,
2013-07-03 03:23:00,66.0,59.0,29.79,SSW,197,0.0,0.0,77,0.00,,,0.00,,2013-07-03 09:23:00,
2013-07-03 03:43:00,65.0,58.0,29.80,SSW,197,0.0,0.0,79,0.00,,,0.00,,2013-07-03 09:43:00,
2013-07-03 03:57:00,64.0,57.0,29.80,SSW,198,0.0,0.0,79,0.00,,,0.00,,2013-07-03 09:57:00,
2013-07-03 04:03:00,64.0,58.0,29.80,SSW,197,0.0,0.0,80,0.00,,,0.00,,2013-07-03 10:03:00,
2013-07-03 04:22:00,63.0,57.0,29.80,SSW,197,0.0,0.0,82,0.00,,,0.00,,2013-07-03 10:22:00,
2013-07-03 04:34:00,63.0,57.0,29.80,SSW,197,0.0,0.0,82,0.00,,,0.00,,2013-07-03 10:34:00,
2013-07-03 04:43:00,63.0,58.0,29.80,SSW,197,0.0,0.0,83,0.00,,,0.00,,2013-07-03 10:43:00,
2013-07-03 04:55:00,63.0,58.0,29.80,SSW,197,0.0,0.0,83,0.00,,,0.00,,2013-07-03 10:55:00,
2013-07-03 05:02:00,62.0,57.0,29.80,SSW,199,0.0,0.0,83,0.00,,,0.00,,2013-07-03 11:02:00,
2013-07-03 05:12:00,62.0,57.0,29.81,SSW,197,0.0,0.0,83,0.00,,,0.00,,2013-07-03 11:12:00,
2013-07-03 05:23:00,62.0,57.0,29.81,SSW,198,0.0,0.0,84,0.00,,,0.00,,2013-07-03 11:23:00,
2013-07-03 05:35:00,62.0,57.0,29.81,SSW,199,0.0,0.0,84,0.00,,,0.00,,2013-07-03 11:35:00,
2013-07-03 05:42:00,62.0,57.0,29.81,SSW,199,0.0,0.0,84,0.00,,,0.00,,2013-07-03 11:42:00,
2013-07-03 05:53:00,61.0,56.0,29.81,SSW,199,0.0,0.0,84,0.00,,,0.00,,2013-07-03 11:53:00,
2013-07-03 06:11:00,61.0,56.0,29.81,SSW,199,0.0,0.0,84,0.00,,,0.00,,2013-07-03 12:11:00,
2013-07-03 06:45:00,61.0,56.0,29.82,SSW,198,0.0,0.0,85,0.00,,,0.00,,2013-07-03 12:45:00,
2013-07-03 06:58:00,61.0,56.0,29.83,SSW,199,0.0,0.0,85,0.00,,,0.00,,2013-07-03 12:58:00,
2013-07-03 07:33:00,61.0,56.0,29.83,SSW,198,0.0,0.0,85,0.00,,,0.00,,2013-07-03 13:33:00,
2013-07-03 07:47:00,61.0,56.0,29.83,SSW,198,0.0,0.0,85,0.00,,,0.00,,2013-07-03 13:47:00,
2013-07-03 07:54:00,61.0,56.0,29.83,SSW,198,0.0,0.0,85,0.00,,,0.00,,2013-07-03 13:54:00,
2013-07-03 08:14:00,64.0,57.0,29.83,SSW,197,0.0,0.0,79,0.00,,,0.00,,2013-07-03 14:14:00,
2013-07-03 08:23:00,66.0,59.0,29.83,SSW,196,0.0,0.0,77,0.00,,,0.00,,2013-07-03 14:23:00,
2013-07-03 08:33:00,67.0,58.0,29.83,SSW,197,0.0,0.0,74,0.00,,,0.00,,2013-07-03 14:33:00,
2013-07-03 08:53:00,67.0,58.0,29.83,SSW,197,0.0,0.0,74,0.00,,,0.00,,2013-07-03 14:53:00,
2013-07-03 09:02:00,73.0,56.0,29.85,SE,132,0.0,2.0,56,0.00,,,0.00,,2013-07-03 15:02:00,
2013-07-03 09:14:00,73.0,56.0,29.85,SE,132,0.0,2.0,56,0.00,,,0.00,,2013-07-03 15:14:00,
2013-07-03 09:45:00,75.0,57.0,29.84,West,271,0.0,0.0,54,0.00,,,0.00,,2013-07-03 15:45:00,
2013-07-03 09:53:00,75.0,57.0,29.84,West,271,0.0,0.0,54,0.00,,,0.00,,2013-07-03 15:53:00,
2013-07-03 10:02:00,75.0,57.0,29.84,West,271,0.0,0.0,54,0.00,,,0.00,,2013-07-03 16:02:00,
2013-07-03 10:44:00,82.0,57.0,29.82,SSW,212,0.0,2.0,43,0.00,,,0.00,,2013-07-03 16:44:00,
2013-07-03 10:54:00,82.0,57.0,29.82,SSW,212,0.0,2.0,43,0.00,,,0.00,,2013-07-03 16:54:00,
2013-07-03 11:12:00,86.0,53.0,29.82,West,271,0.0,2.0,32,0.00,,,0.00,,2013-07-03 17:12:00,
2013-07-03 11:22:00,86.0,53.0,29.82,West,271,0.0,2.0,32,0.00,,,0.00,,2013-07-03 17:22:00,
2013-07-03 11:35:00,87.0,51.0,29.81,West,274,1.0,4.0,29,0.00,,,0.00,,2013-07-03 17:35:00,
2013-07-03 11:45:00,87.0,51.0,29.81,West,280,1.0,4.0,29,0.00,,,0.00,,2013-07-03 17:45:00,
2013-07-03 12:12:00,87.0,49.0,29.80,North,354,5.0,10.0,27,0.00,,,0.00,,2013-07-03 18:12:00,
2013-07-03 12:23:00,87.0,49.0,29.80,North,354,5.0,10.0,27,0.00,,,0.00,,2013-07-03 18:23:00,
2013-07-03 12:44:00,89.0,49.0,29.79,NW,310,2.0,11.0,25,0.00,,,0.00,,2013-07-03 18:44:00,
2013-07-03 12:57:00,89.0,49.0,29.79,NW,310,2.0,11.0,25,0.00,,,0.00,,2013-07-03 18:57:00,
2013-07-03 13:03:00,90.0,47.0,29.78,WNW,291,2.0,5.0,23,0.00,,,0.00,,2013-07-03 19:03:00,
2013-07-03 13:25:00,90.0,45.0,29.78,West,280,2.0,12.0,21,0.00,,,0.00,,2013-07-03 19:25:00,
2013-07-03 13:34:00,90.0,45.0,29.78,West,280,2.0,12.0,21,0.00,,,0.00,,2013-07-03 19:34:00,
2013-07-03 13:48:00,91.0,46.0,29.77,NW,306,2.0,12.0,21,0.00,,,0.00,,2013-07-03 19:48:00,
2013-07-03 14:01:00,91.0,43.0,29.77,West,274,2.0,7.0,19,0.00,,,0.00,,2013-07-03 20:01:00,
2013-07-03 14:12:00,91.0,43.0,29.77,West,274,2.0,7.0,19,0.00,,,0.00,,2013-07-03 20:12:00,
2013-07-03 15:02:00,92.0,39.0,29.75,WNW,290,2.0,12.0,16,0.00,,,0.00,,2013-07-03 21:02:00,
2013-07-03 18:02:00,92.0,39.0,29.72,WNW,299,2.0,10.0,16,0.00,,,0.00,,2013-07-04 00:02:00,
2013-07-03 18:11:00,92.0,41.0,29.71,West,271,1.0,10.0,17,0.00,,,0.00,,2013-07-04 00:11:00,
2013-07-03 18:34:00,91.0,43.0,29.71,WNW,283,3.0,8.0,19,0.00,,,0.00,,2013-07-04 00:34:00,
2013-07-03 18:43:00,91.0,43.0,29.71,WNW,283,3.0,8.0,19,0.00,,,0.00,,2013-07-04 00:43:00,
2013-07-03 19:02:00,89.0,41.0,29.70,West,275,2.0,13.0,19,0.00,,,0.00,,2013-07-04 01:02:00,
2013-07-03 19:11:00,89.0,41.0,29.70,West,271,2.0,12.0,19,0.00,,,0.00,,2013-07-04 01:11:00,
2013-07-03 19:23:00,89.0,41.0,29.70,West,271,2.0,12.0,19,0.00,,,0.00,,2013-07-04 01:23:00,
2013-07-03 19:43:00,89.0,40.0,29.70,SSW,197,1.0,11.0,18,0.00,,,0.00,,2013-07-04 01:43:00,
2013-07-03 19:52:00,89.0,40.0,29.70,SSW,197,1.0,11.0,18,0.00,,,0.00,,2013-07-04 01:52:00,
2013-07-03 20:02:00,89.0,40.0,29.70,SSW,197,1.0,11.0,18,0.00,,,0.00,,2013-07-04 02:02:00,
2013-07-03 20:21:00,85.0,41.0,29.71,West,263,1.0,6.0,21,0.00,,,0.00,,2013-07-04 02:21:00,
2013-07-03 20:22:00,86.0,40.0,29.71,NW,304,1.0,6.0,20,0.00,,,0.00,,2013-07-04 02:22:00,
2013-07-03 20:36:00,86.0,41.0,29.71,WNW,298,0.0,6.0,21,0.00,,,0.00,,2013-07-04 02:36:00,
2013-07-03 20:44:00,85.0,41.0,29.71,West,263,1.0,6.0,21,0.00,,,0.00,,2013-07-04 02:44:00,
2013-07-03 20:52:00,85.0,41.0,29.71,West,263,1.0,6.0,21,0.00,,,0.00,,2013-07-04 02:52:00,
2013-07-03 21:02:00,85.0,41.0,29.71,West,263,1.0,6.0,21,0.00,,,0.00,,2013-07-04 03:02:00,
2013-07-03 21:11:00,85.0,41.0,29.71,West,263,1.0,6.0,21,0.00,,,0.00,,2013-07-04 03:11:00,
2013-07-03 21:36:00,82.0,44.0,29.72,WSW,257,0.0,5.0,26,0.00,,,0.00,,2013-07-04 03:36:00,
2013-07-03 21:46:00,81.0,46.0,29.72,WSW,257,0.0,0.0,29,0.00,,,0.00,,2013-07-04 03:46:00,
2013-07-03 21:56:00,81.0,46.0,29.72,WSW,257,0.0,0.0,29,0.00,,,0.00,,2013-07-04 03:56:00,
2013-07-03 22:01:00,77.0,47.0,29.73,East,84,0.0,1.0,35,0.00,,,0.00,,2013-07-04 04:01:00,
2013-07-03 22:11:00,77.0,47.0,29.73,East,84,0.0,1.0,35,0.00,,,0.00,,2013-07-04 04:11:00,
2013-07-03 22:22:00,77.0,47.0,29.73,East,84,0.0,1.0,35,0.00,,,0.00,,2013-07-04 04:22:00,
2013-07-03 22:33:00,75.0,47.0,29.74,North,5,0.0,4.0,37,0.00,,,0.00,,2013-07-04 04:33:00,
2013-07-03 22:43:00,74.0,47.0,29.75,East,98,0.0,2.0,39,0.00,,,0.00,,2013-07-04 04:43:00,
2013-07-03 22:52:00,73.0,49.0,29.75,East,98,0.0,2.0,42,0.00,,,0.00,,2013-07-04 04:52:00,
2013-07-03 23:01:00,71.0,48.0,29.75,East,97,0.0,0.0,44,0.00,,,0.00,,2013-07-04 05:01:00,
2013-07-03 23:12:00,71.0,48.0,29.75,East,97,0.0,0.0,44,0.00,,,0.00,,2013-07-04 05:12:00,
2013-07-03 23:21:00,71.0,48.0,29.75,East,97,0.0,0.0,44,0.00,,,0.00,,2013-07-04 05:21:00,
2013-07-03 23:32:00,69.0,48.0,29.76,East,98,0.0,0.0,48,0.00,,,0.00,,2013-07-04 05:32:00,
2013-07-03 23:42:00,68.0,48.0,29.76,East,98,0.0,0.0,49,0.00,,,0.00,,2013-07-04 05:42:00,
2013-07-03 23:52:00,67.0,48.0,29.76,East,97,0.0,0.0,50,0.00,,,0.00,,2013-07-04 05:52:00,